This is the latest recevied weather packets stored in our database for station/object CE3UOB-10. If no packets are shown the sender has not sent any weather packets the latest 10 day(s).
| Time | Temp. | Humidity | Pressure | Rain* | Wind** | Luminosity | Snow |
|---|---|---|---|---|---|---|---|
| 1777967562 | 11.67° C | 60% | 992.8 hPa | - | - | - | - |
| 1777967515 | 11.67° C | 60% | 992.8 hPa | - | - | - | - |
| 1777967508 | 11.67° C | 60% | 992.8 hPa | - | - | - | - |
| 1777966064 | 12.22° C | 58% | 992.6 hPa | - | - | - | - |
| 1777965715 | 12.22° C | 58% | 992.6 hPa | - | - | - | - |
| 1777965708 | 12.22° C | 58% | 992.6 hPa | - | - | - | - |
| 1777963915 | 12.22° C | 57% | 992.6 hPa | - | - | - | - |
| 1777963908 | 12.22° C | 57% | 992.6 hPa | - | - | - | - |
| 1777962114 | 12.78° C | 58% | 993 hPa | - | - | - | - |
| 1777962108 | 12.78° C | 58% | 993 hPa | - | - | - | - |
| 1777960315 | 12.78° C | 57% | 993.3 hPa | - | - | - | - |
| 1777960308 | 12.78° C | 57% | 993.3 hPa | - | - | - | - |
| 1777958514 | 13.33° C | 57% | 993.6 hPa | - | - | - | - |
| 1777958508 | 13.33° C | 57% | 993.6 hPa | - | - | - | - |
| 1777956714 | 13.33° C | 56% | 993.1 hPa | - | - | - | - |
| 1777956707 | 13.33° C | 56% | 993.1 hPa | - | - | - | - |
| 1777954914 | 13.89° C | 56% | 993.9 hPa | - | - | - | - |
| 1777954907 | 13.89° C | 56% | 993.9 hPa | - | - | - | - |
| 1777953114 | 14.44° C | 55% | 993.8 hPa | - | - | - | - |
| 1777953107 | 14.44° C | 55% | 993.8 hPa | - | - | - | - |
| 1777951313 | 14.44° C | 55% | 993.6 hPa | - | - | - | - |
| 1777951307 | 14.44° C | 55% | 993.6 hPa | - | - | - | - |
| 1777949506 | 14.44° C | 57% | 993.3 hPa | - | - | - | - |
| 1777947722 | 12.22° C | 63% | 993.5 hPa | - | - | - | - |
| 1777947705 | 12.22° C | 63% | 993.5 hPa | - | - | - | - |
* Rain since midnight (hover to see other rain measurements)
** Current wind speed in m/s (hover to see current wind gust speed)